Date,TemperatureHighF,TemperatureAvgF,TemperatureLowF,DewpointHighF,DewpointAvgF,DewpointLowF,HumidityHigh,HumidityAvg,HumidityLow,PressureMaxIn,PressureMinIn,WindSpeedMaxMPH,WindSpeedAvgMPH,GustSpeedMaxMPH,PrecipitationSumIn
2013-1-1,59.0,48.5,43.3,23.0,20.0,18.0,38,33,25,30.13,30.09,2,1,2,0.00
2013-1-2,53.2,49.3,41.4,24.0,22.0,20.0,42,35,30,30.12,30.09,1,0,2,0.00
2013-1-4,-200.0,0.0,200.0,-99.9,-99.9,-99.9,0,0,100,30.14,30.14,0,-999,0,0.00
2013-1-5,37.4,37.4,37.4,13.0,13.0,13.0,36,36,36,30.23,30.23,0,0,1,0.00
2013-1-6,54.7,48.6,42.5,36.0,25.0,14.0,50,41,32,30.06,29.88,3,2,5,0.00
2013-1-9,57.9,57.9,57.9,32.0,32.0,32.0,38,38,38,29.99,29.99,0,0,2,0.00
2013-1-10,50.9,50.9,50.9,27.0,27.0,27.0,39,39,39,29.82,29.82,9,9,10,0.00
2013-1-11,48.2,12.1,48.2,16.0,-70.9,-99.9,28,7,28,29.96,29.91,2,-749,5,0.00
2013-1-12,41.3,38.9,37.6,11.0,10.3,9.0,33,31,27,30.04,30.03,2,1,4,0.00
2013-1-13,54.9,50.8,44.3,14.0,10.2,7.0,29,20,16,30.07,29.96,1,0,7,0.00
2013-1-14,-200.0,0.0,200.0,-99.9,-99.9,-99.9,0,0,100,30.16,30.16,0,-999,0,0.00
2013-1-15,-200.0,0.0,200.0,-99.9,-99.9,-99.9,0,0,100,30.33,30.33,0,-999,0,0.00
2013-1-17,74.4,74.4,74.4,18.0,18.0,18.0,12,12,12,30.09,30.09,2,2,3,0.00
2013-1-18,51.4,25.7,51.4,17.0,-41.5,-99.9,25,12,25,30.07,30.06,0,-500,0,0.00
2013-1-19,65.4,64.7,64.0,24.0,24.0,24.0,22,22,21,30.03,30.03,0,0,1,0.00
2013-1-20,74.9,58.2,47.4,17.0,13.7,10.0,26,18,11,30.07,29.99,0,0,2,0.00
2013-1-22,74.2,37.1,74.2,18.0,-41.0,-99.9,12,6,12,30.02,29.95,0,-500,1,0.00
2013-1-23,64.7,32.3,64.7,36.0,-32.0,-99.9,34,17,34,29.97,29.95,0,-500,0,0.00
2013-1-24,72.3,69.7,66.1,45.0,43.7,42.0,47,40,34,30.07,30.00,1,1,4,0.00
2013-1-25,60.7,40.0,58.9,58.0,4.7,-99.9,94,60,87,30.07,29.92,1,-333,1,0.29
2013-1-26,62.7,61.6,60.5,59.0,59.0,59.0,94,90,86,29.80,29.79,6,4,6,0.00
2013-1-27,59.3,56.6,53.9,58.0,47.5,37.0,94,74,53,29.82,29.80,3,2,4,0.00
2013-1-28,-200.0,0.0,200.0,-99.9,-99.9,-99.9,0,0,100,29.88,29.87,0,-999,0,0.00
2013-1-30,54.6,54.6,54.6,38.0,38.0,38.0,53,53,53,30.13,30.13,0,0,1,0.00
2013-1-31,-200.0,0.0,200.0,-99.9,-99.9,-99.9,0,0,100,30.11,30.11,0,-999,0,0.00